General Aviation Weather

Text Reports

Enter one or more of the following location identifiers separated by a space:

Zip Code, Four-Character ICAO or Three-Character IATA airport codes.

METAR - Aviation Routine Weather Report
KRMY - Marshall, Michigan
Updated at 12:25 AM GMT on November 23, 2014 (7:25 PM EST):
METAR KRMY 230025Z AUTO 22008KT 7SM OVC021 07/06 A2991 RMK AO2
TAF - Terminal Area Forecast
KRMY - Marshall, Michigan
Updated at 12:25 AM GMT on November 23, 2014 (7:25 PM EST):
No TAF is currently available for this location.
Decoded:
No decoded TAF is available.
PIREP - Pilot Weather Report
KRMY - Marshall, Michigan
Updated at 12:25 AM GMT on November 23, 2014 (7:25 PM EST):
No PIREP is currently available for this location.
AIRMET - Airmens Meteorological Information
KRMY - Marshall, Michigan
Updated at 12:25 AM GMT on November 23, 2014 (7:25 PM EST):
No AIRMET is currently available for this location.
SIGMET - Significant Meteorological Information
KRMY - Marshall, Michigan
Updated at 12:25 AM GMT on November 23, 2014 (7:25 PM EST):
No SIGMET is currently available for this location.
NOTAM - Notice to Airmen
KRMY - Marshall, Michigan
Updated at 12:25 AM GMT on November 23, 2014 (7:25 PM EST):
No NOTAM is currently available for this location.
Forecast Area
KRMY - Marshall, Michigan
Updated at 12:25 AM GMT on November 23, 2014 (7:25 PM EST):
No NOTAM is currently available for this location.
Aviation Weather Maps